Zurück zum Katalog

STARLINK-31937

AktivKommunikationVLEO
NORAD 59871·PAYLOAD·🇺🇸 United States

Gestartet May 24, 2024 von Cape Canaveral Space Force Station

Loading…

Nächste Überflüge (nächste 24 Stunden)

TLE

AktuellSource: CelesTrak SupGP

Epoche: Sep 15, 2026, 03:08 UTC

1 59871C 24098P   26258.13104167 -.00007234  00000+0 -26197-3 0  2582
2 59871  42.9995 281.1793 0001232 265.6987 291.1744 15.27585032    19

Verfolge STARLINK-31937 in Echtzeit mit AllMySat

Download on the App Store